Portada
METAR-TAF:

METAR-TAF

Aeroports :

Searcy Municipal Airport

Searcy, Arkansas, Estats Units d'Amèrica

latitud: 35-12-43N, longitud: 091-44-14W, altitud: 81 m

Observació

L'informe es va fer fa 42 minuts, a les 18:56 UTC
Vent 5 kt del Sud
Temperatura 29°C
Humitat 55%
Pressió 1019 hPa
Visibilitat: 16.1 km
Cel clar

METAR: KSRC 211856Z AUTO 19005KT 10SM CLR 29/19 A3010 RMK AO2 SLP190 T02890189

Hora: 14:38 (19:38 UTC)


TAF: manca

Observacions i pronòstics meteorològics de més de 4000 aeroports (METAR i TAF).

Les estacions disponibles són els punts grocs i vermells al mapa.

Posi el ratolí al punt desitjat per veure el nom de l'estació.

Feu clic per veure les observacions i els pronòstics meteorològics.

Per canviar el mapa: feu clic els botons verds amb una creu de color negre per apropar; al botó verd amb un guió per allunyar la imatge; o en les fletxes verdes per a mapes adjacents.


METAR-TAF: